CAPE
0 0 0 0 0 0 0 0 0 0 0 0 0 0 0 0 0 0 0 0 0 1 19 23 27 6 2 0 0 0 0 0 0 0 0 0 0 0 0 0 0 0 0 0 0 0 0 0 1
0 0 0 0 0 0 0 0 0 0 0 0 0 0 0 0 0 0 0 0 0 7 16 9 15 4 0 0 0 0 0 0 0 0 0 0 0 0 0 0 0 0 0 0 0 0 0 0 0
0 0 0 0 0 0 0 0 0 0 0 0 0 0 0 0 0 0 0 0 5 17 10 5 12 0 0 0 0 0 0 0 0 0 0 0 0 0 0 0 0 0 0 0 0 0 0 0 0
0 0 0 0 0 0 0 0 0 0 0 0 0 0 0 0 0 0 0 2 8 13 6 6 13 0 0 0 0 0 0 0 0 0 0 0 0 0 0 0 0 0 0 0 0 0 0 0 0
0 0 0 0 0 0 0 0 0 0 0 0 0 0 0 0 0 0 2 4 7 10 7 3 4 0 0 0 0 0 0 0 0 0 0 0 0 0 0 0 0 0 0 0 0 1 1 0 0
0 0 0 0 0 0 0 0 0 0 0 0 0 0 0 0 0 0 6 8 8 6 6 4 0 0 0 0 0 0 0 0 0 0 0 0 0 0 0 0 0 0 0 1 1 2 3 3 3
0 0 0 0 0 0 0 0 0 0 0 0 0 0 0 0 0 0 9 11 10 7 8 4 0 0 0 0 0 0 0 0 0 0 0 0 0 0 0 0 0 0 1 1 2 3 4 5 6
0 0 0 0 0 0 0 0 0 0 0 0 0 0 0 0 0 0 1 8 9 6 2 0 0 0 0 0 0 0 0 0 0 0 0 0 0 0 0 0 0 0 0 0 1 3 3 2 0
0 0 0 0 0 0 0 0 0 0 0 0 0 0 0 0 3 3 1 2 9 4 0 0 0 0 0 0 0 0 0 0 0 0 0 0 0 0 0 0 0 0 0 0 0 0 0 0 0
0 0 0 0 0 0 0 0 0 0 0 0 0 0 0 0 3 1 2 3 7 4 0 0 0 0 0 0 0 0 0 0 0 0 0 0 0 0 0 0 0 0 0 0 0 0 0 1 4
0 0 0 0 0 0 0 0 0 0 0 0 0 0 0 0 0 0 0 0 0 0 0 0 0 0 0 0 0 0 0 0 0 0 0 0 0 0 0 0 0 0 0 2 4 6 8 9 12
0 0 0 0 0 0 0 0 0 0 0 0 0 0 0 0 0 0 0 0 0 0 0 0 0 0 0 0 0 0 0 0 0 0 0 0 0 0 0 0 0 2 5 11 16 15 14 13 12
0 0 0 0 0 0 0 0 0 0 0 0 0 0 0 0 0 0 0 0 0 0 0 0 0 0 0 0 0 0 0 0 0 0 0 0 0 0 0 0 1 5 6 17 17 10 8 9 5
0 0 0 0 0 0 0 0 0 0 0 0 0 0 0 0 0 0 0 0 0 0 0 0 0 0 0 0 0 0 0 0 0 0 0 0 0 0 0 1 1 3 5 26 15 27 17 5 6
0 0 0 0 0 0 0 0 0 0 0 0 0 0 0 0 0 0 0 0 0 0 0 0 0 0 0 0 0 0 0 0 0 0 0 0 0 0 0 2 3 4 9 19 35 40 27 33 47
0 0 0 0 0 0 0 0 0 0 0 0 0 0 0 0 0 0 0 0 0 0 0 0 0 0 0 0 0 0 0 0 0 0 0 0 0 0 0 1 5 10 12 21 42 42 42 65 44
0 0 0 0 0 0 0 0 0 0 0 0 0 0 0 0 0 0 0 0 0 0 0 0 0 0 0 0 0 0 0 0 0 0 0 0 0 0 0 0 6 1 11 23 35 33 50 51 28
0 0 0 0 0 0 0 0 0 0 0 0 0 0 0 0 0 0 0 0 0 0 0 0 0 0 0 0 0 0 0 0 0 0 0 0 0 0 0 0 3 0 15 20 23 37 54 11 8
0 0 0 0 0 0 0 0 0 0 0 0 0 0 0 0 0 0 0 0 0 0 0 0 0 0 0 0 0 0 0 0 0 0 0 0 0 0 0 0 1 2 11 14 18 41 32 35 15
0 0 0 0 0 0 0 0 0 0 0 0 0 0 0 0 0 0 0 0 0 0 0 0 0 0 0 0 0 0 0 0 0 0 0 0 0 0 0 0 0 2 6 12 14 23 13 18 8
0 0 0 0 0 0 0 0 0 0 0 0 0 0 0 0 0 0 0 0 0 0 0 0 0 0 0 0 0 0 0 0 0 0 0 0 0 0 0 0 0 4 0 10 22 7 4 7 7
0 0 0 0 0 0 0 0 0 0 0 0 0 0 0 0 0 0 0 0 0 0 0 0 0 0 0 0 0 0 0 0 0 0 0 0 0 0 0 0 0 3 2 5 20 9 5 7 4
0 0 0 0 0 0 0 0 0 0 0 0 0 0 0 0 0 0 0 0 0 0 0 0 0 0 0 0 0 0 0 0 0 0 0 0 0 0 0 0 0 0 0 7 14 8 4 1 2
0 0 0 0 0 0 0 0 0 0 0 0 0 0 0 0 0 0 0 0 0 0 0 0 0 0 0 0 0 0 0 0 0 0 0 0 0 0 0 0 0 0 1 8 7 1 2 0 1
0 0 0 0 0 0 0 0 0 0 0 0 0 0 0 0 0 0 0 0 0 0 0 0 0 0 0 0 0 0 0 0 0 0 0 0 0 0 0 0 0 0 0 10 17 1 3 1 0
0 0 0 0 0 0 0 0 0 0 0 0 0 0 0 0 0 0 0 0 0 0 0 0 0 0 0 0 0 0 0 0 0 0 0 0 0 0 0 0 0 0 0 1 14 5 4 4 0
0 0 0 0 0 0 0 0 0 0 0 0 0 0 0 0 0 0 0 0 0 0 0 0 0 0 0 0 0 0 0 0 0 0 0 0 0 0 0 0 0 0 0 2 0 3 6 7 3
0 0 0 0 0 0 0 0 0 0 0 0 0 0 0 0 0 0 0 0 0 0 0 0 0 0 0 0 0 0 0 0 0 0 0 0 0 0 0 0 0 0 1 1 0 2 3 2 2
0 0 0 0 0 0 0 0 0 0 0 0 0 0 0 0 0 0 0 0 0 0 0 0 0 0 0 0 0 0 0 0 0 0 0 0 0 0 0 0 0 0 0 1 0 0 0 0 1
0 0 0 0 0 0 0 0 0 0 0 0 0 0 0 0 0 0 0 0 0 0 0 0 0 0 0 0 0 0 0 0 0 0 0 0 0 0 0 0 0 0 0 3 0 0 0 0 1
CIN
-0 -0 -0 -0 -0 -0 -0 -0 -0 -0 -0 -0 -0 -0 -0 -0 -0 -0 -0 -0 -0 -0 -0 -9 -9 -5 -0 -0 -0 -0 -0 -0 -0 -0 -0 -0 -0 -0 -0 -0 -0 -0 -0 -0 -0 -0 -0 -0 -0
-0 -0 -0 -0 -0 -0 -0 -0 -0 -0 -0 -0 -0 -0 -0 -0 -0 -0 -0 -0 -0 -0 -0 -12 -18 -0 -0 -0 -0 -0 -0 -0 -0 -0 -0 -0 -0 -0 -0 -0 -0 -0 -0 -0 -0 -0 -0 -0 -0
-0 -0 -0 -0 -0 -0 -0 -0 -0 -0 -0 -0 -0 -0 -0 -0 -0 -0 -0 -0 -0 -0 -3 -16 -15 -0 -0 -0 -0 -0 -0 -0 -0 -0 -0 -0 -0 -0 -0 -0 -0 -0 -0 -0 -0 -0 -0 -0 -0
-0 -0 -0 -0 -0 -0 -0 -0 -0 -0 -0 -0 -0 -0 -0 -0 -0 -0 -0 -0 -0 -0 -1 -12 -7 -0 -0 -0 -0 -0 -0 -0 -0 -0 -0 -0 -0 -0 -0 -0 -0 -0 -0 -0 -0 -0 -0 -0 -0
-0 -0 -0 -0 -0 -0 -0 -0 -0 -0 -0 -0 -0 -0 -0 -0 -0 -0 -0 -0 -0 -0 -0 -1 -1 -0 -0 -0 -0 -0 -0 -0 -0 -0 -0 -0 -0 -0 -0 -0 -0 -0 -0 -0 -0 -0 -0 -0 -0
-0 -0 -0 -0 -0 -0 -0 -0 -0 -0 -0 -0 -0 -0 -0 -0 -0 -0 -0 -0 -0 -0 -0 -0 -0 -0 -0 -0 -0 -0 -0 -0 -0 -0 -0 -0 -0 -0 -0 -0 -0 -0 -0 -0 -0 -0 -0 -0 -0
-0 -0 -0 -0 -0 -0 -0 -0 -0 -0 -0 -0 -0 -0 -0 -0 -0 -0 -0 -0 -0 -0 -0 -0 -0 -0 -0 -0 -0 -0 -0 -0 -0 -0 -0 -0 -0 -0 -0 -0 -0 -0 -0 -0 -0 -0 -0 -0 -0
-0 -0 -0 -0 -0 -0 -0 -0 -0 -0 -0 -0 -0 -0 -0 -0 -0 -0 -0 -0 -0 -0 -0 -0 -0 -0 -0 -0 -0 -0 -0 -0 -0 -0 -0 -0 -0 -0 -0 -0 -0 -0 -0 -0 -0 -0 -0 -0 -0
-0 -0 -0 -0 -0 -0 -0 -0 -0 -0 -0 -0 -0 -0 -0 -0 -0 -0 -0 -0 -0 -0 -0 -0 -0 -0 -0 -0 -0 -0 -0 -0 -0 -0 -0 -0 -0 -0 -0 -0 -0 -0 -0 -0 -0 -0 -0 -0 -0
-0 -0 -0 -0 -0 -0 -0 -0 -0 -0 -0 -0 -0 -0 -0 -0 -0 -0 -0 -0 -0 -0 -0 -0 -0 -0 -0 -0 -0 -0 -0 -0 -0 -0 -0 -0 -0 -0 -0 -0 -0 -0 -0 -0 -0 -0 -0 -0 -0
-0 -0 -0 -0 -0 -0 -0 -0 -0 -0 -0 -0 -0 -0 -0 -0 -0 -0 -0 -0 -0 -0 -0 -0 -0 -0 -0 -0 -0 -0 -0 -0 -0 -0 -0 -0 -0 -0 -0 -0 -0 -0 -0 -0 -0 -0 -0 -0 -0
-0 -0 -0 -0 -0 -0 -0 -0 -0 -0 -0 -0 -0 -0 -0 -0 -0 -0 -0 -0 -0 -0 -0 -0 -0 -0 -0 -0 -0 -0 -0 -0 -0 -0 -0 -0 -0 -0 -0 -0 -0 -0 -0 -0 -0 -0 -0 -0 -0
-0 -0 -0 -0 -0 -0 -0 -0 -0 -0 -0 -0 -0 -0 -0 -0 -0 -0 -0 -0 -0 -0 -0 -0 -0 -0 -0 -0 -0 -0 -0 -0 -0 -0 -0 -0 -0 -0 -0 -0 -0 -0 -0 -0 -0 -0 -0 -0 -0
-0 -0 -0 -0 -0 -0 -0 -0 -0 -0 -0 -0 -0 -0 -0 -0 -0 -0 -0 -0 -0 -0 -0 -0 -0 -0 -0 -0 -0 -0 -0 -0 -0 -0 -0 -0 -0 -0 -0 -0 -0 -0 -0 -0 -15 -0 -0 -0 -0
-0 -0 -0 -0 -0 -0 -0 -0 -0 -0 -0 -0 -0 -0 -0 -0 -0 -0 -0 -0 -0 -0 -0 -0 -0 -0 -0 -0 -0 -0 -0 -0 -0 -0 -0 -0 -0 -0 -0 -0 -0 -0 -0 -0 -1 -0 -0 -0 -0
-0 -0 -0 -0 -0 -0 -0 -0 -0 -0 -0 -0 -0 -0 -0 -0 -0 -0 -0 -0 -0 -0 -0 -0 -0 -0 -0 -0 -0 -0 -0 -0 -0 -0 -0 -0 -0 -0 -0 -0 -0 -0 -0 -0 -0 -0 -0 -0 -1
-0 -0 -0 -0 -0 -0 -0 -0 -0 -0 -0 -0 -0 -0 -0 -0 -0 -0 -0 -0 -0 -0 -0 -0 -0 -0 -0 -0 -0 -0 -0 -0 -0 -0 -0 -0 -0 -0 -0 -0 -0 -10 -0 -0 -0 -0 -0 -0 -4
-0 -0 -0 -0 -0 -0 -0 -0 -0 -0 -0 -0 -0 -0 -0 -0 -0 -0 -0 -0 -0 -0 -0 -0 -0 -0 -0 -0 -0 -0 -0 -0 -0 -0 -0 -0 -0 -0 -0 -0 -1 -0 -0 -0 -0 -0 -0 -22 -19
-0 -0 -0 -0 -0 -0 -0 -0 -0 -0 -0 -0 -0 -0 -0 -0 -0 -0 -0 -0 -0 -0 -0 -0 -0 -0 -0 -0 -0 -0 -0 -0 -0 -0 -0 -0 -0 -0 -0 -0 -1 -17 -0 -0 -0 -0 -1 -1 -5
-0 -0 -0 -0 -0 -0 -0 -0 -0 -0 -0 -0 -0 -0 -0 -0 -0 -0 -0 -0 -0 -0 -0 -0 -0 -0 -0 -0 -0 -0 -0 -0 -0 -0 -0 -0 -0 -0 -0 -0 -0 -16 -15 -5 -0 -0 -6 -5 -0
-0 -0 -0 -0 -0 -0 -0 -0 -0 -0 -0 -0 -0 -0 -0 -0 -0 -0 -0 -0 -0 -0 -0 -0 -0 -0 -0 -0 -0 -0 -0 -0 -0 -0 -0 -0 -0 -0 -0 -0 -0 -10 -23 -3 -0 -0 -0 -2 -0
-0 -0 -0 -0 -0 -0 -0 -0 -0 -0 -0 -0 -0 -0 -0 -0 -0 -0 -0 -0 -0 -0 -0 -0 -0 -0 -0 -0 -0 -0 -0 -0 -0 -0 -0 -0 -0 -0 -0 -0 -0 -7 -16 -5 -0 -0 -0 -0 -0
-0 -0 -0 -0 -0 -0 -0 -0 -0 -0 -0 -0 -0 -0 -0 -0 -0 -0 -0 -0 -0 -0 -0 -0 -0 -0 -0 -0 -0 -0 -0 -0 -0 -0 -0 -0 -0 -0 -0 -0 -0 -0 -0 -2 -0 -0 -0 -0 -0
-0 -0 -0 -0 -0 -0 -0 -0 -0 -0 -0 -0 -0 -0 -0 -0 -0 -0 -0 -0 -0 -0 -0 -0 -0 -0 -0 -0 -0 -0 -0 -0 -0 -0 -0 -0 -0 -0 -0 -0 -0 -0 -0 -1 -0 -0 -0 -0 -0
-0 -0 -0 -0 -0 -0 -0 -0 -0 -0 -0 -0 -0 -0 -0 -0 -0 -0 -0 -0 -0 -0 -0 -0 -0 -0 -0 -0 -0 -0 -0 -0 -0 -0 -0 -0 -0 -0 -0 -0 -0 -0 -0 -0 -4 -0 -0 -0 -0
-0 -0 -0 -0 -0 -0 -0 -0 -0 -0 -0 -0 -0 -0 -0 -0 -0 -0 -0 -0 -0 -0 -0 -0 -0 -0 -0 -0 -0 -0 -0 -0 -0 -0 -0 -0 -0 -0 -0 -0 -0 -0 -10 -5 -8 -0 -0 -0 -0
-0 -0 -0 -0 -0 -0 -0 -0 -0 -0 -0 -0 -0 -0 -0 -0 -0 -0 -0 -0 -0 -0 -0 -0 -0 -0 -0 -0 -0 -0 -0 -0 -0 -0 -0 -0 -0 -0 -0 -0 -0 -0 -1 -11 -0 -0 -0 -0 -0
-0 -0 -0 -0 -0 -0 -0 -0 -0 -0 -0 -0 -0 -0 -0 -0 -0 -0 -0 -0 -0 -0 -0 -0 -0 -0 -0 -0 -0 -0 -0 -0 -0 -0 -0 -0 -0 -0 -0 -0 -0 -0 -14 -19 -0 -0 -0 -0 -0
-0 -0 -0 -0 -0 -0 -0 -0 -0 -0 -0 -0 -0 -0 -0 -0 -0 -0 -0 -0 -0 -0 -0 -0 -0 -0 -0 -0 -0 -0 -0 -0 -0 -0 -0 -0 -0 -0 -0 -0 -0 -0 -0 -17 -7 -0 -0 -0 -0
-0 -0 -0 -0 -0 -0 -0 -0 -0 -0 -0 -0 -0 -0 -0 -0 -0 -0 -0 -0 -0 -0 -0 -0 -0 -0 -0 -0 -0 -0 -0 -0 -0 -0 -0 -0 -0 -0 -0 -0 -0 -0 -0 -6 -1 -0 -0 -0 -0
Wind_Speed
4 4 3 3 5 4 4 3 2 4 3 1 1 3 3 4 3 4 5 5 8 13 11 12 14 12 10 10 10 10 9 9 8 8 8 8 7 7 7 8 9 9 9 10 10 9 9 8 9
5 2 3 1 5 6 4 3 7 3 2 3 2 2 3 2 3 6 9 5 11 13 11 11 13 12 10 10 10 10 9 8 8 8 7 7 7 7 8 8 9 9 9 9 9 9 10 10 10
2 4 4 3 3 5 1 4 3 2 3 3 2 2 1 3 4 8 4 10 13 11 10 11 13 12 11 10 10 9 9 8 8 7 7 7 8 8 9 9 9 10 10 10 10 10 9 9 9
3 3 3 6 8 6 3 2 1 3 4 3 2 3 3 4 2 3 11 12 12 11 10 10 12 11 10 10 9 9 8 8 7 7 7 8 8 8 9 9 10 10 10 10 9 9 9 10 10
1 2 4 5 7 4 6 5 3 4 2 5 4 2 1 4 4 7 12 11 12 11 10 10 10 10 10 10 9 9 8 7 7 7 8 9 9 9 10 10 10 10 10 10 10 11 11 10 10
3 2 5 9 10 4 5 6 4 6 2 4 4 3 3 4 6 8 10 11 10 11 11 10 10 9 9 9 9 8 8 7 7 8 8 9 10 10 10 10 10 10 10 11 11 11 11 10 10
3 3 5 7 6 4 4 5 7 5 4 4 1 2 4 6 7 9 10 10 9 10 10 9 10 9 9 8 8 8 7 7 8 8 9 9 10 10 10 9 10 10 11 11 11 11 11 11 11
2 3 3 5 5 4 3 4 1 5 3 2 1 3 3 8 11 10 10 10 10 9 9 9 9 9 8 8 9 9 7 7 8 9 8 8 6 8 9 9 11 11 11 12 12 12 12 12 12
2 6 7 5 5 0 1 5 3 1 4 3 4 1 4 13 14 11 10 9 9 8 9 8 8 8 7 6 7 8 8 7 5 4 6 3 5 6 6 6 10 11 12 13 13 13 13 13 12
6 5 7 1 2 2 1 3 1 4 5 6 6 4 8 13 14 14 13 12 12 12 10 9 8 7 6 5 6 4 4 3 3 3 5 4 5 5 6 3 6 8 10 11 12 12 12 9 7
4 7 4 3 6 4 3 4 2 4 8 10 9 9 12 14 14 14 14 14 13 12 9 9 8 7 6 5 4 3 2 2 2 3 4 4 4 4 4 4 4 6 6 6 8 7 6 9 7
5 8 5 1 2 3 4 3 5 9 9 2 3 4 11 14 15 16 15 13 13 12 11 10 9 8 6 4 4 3 3 2 1 2 4 3 3 3 4 4 5 5 5 6 7 6 8 8 7
7 4 4 6 6 7 5 12 11 15 15 11 5 4 9 12 15 14 13 12 12 13 12 12 10 9 7 6 4 3 3 2 1 1 3 3 3 3 4 5 5 5 6 6 7 7 8 8 8
1 5 8 6 9 7 7 8 3 8 2 7 11 12 14 14 14 13 13 13 14 13 13 12 11 9 8 6 6 4 3 3 1 1 2 3 3 3 3 4 4 5 5 6 6 6 7 6 6
1 6 7 10 6 6 6 10 16 16 6 9 9 8 9 13 12 16 15 14 15 13 13 13 12 10 8 7 6 4 3 3 2 2 2 2 2 3 4 4 4 5 5 7 6 6 6 6 6
3 2 5 3 6 2 7 13 2 1 7 12 12 8 7 13 14 15 13 13 13 13 15 13 10 11 9 7 6 4 4 3 2 2 1 2 2 3 3 3 4 6 5 5 5 6 6 7 7
3 5 7 4 6 3 9 8 2 1 3 6 7 8 9 8 13 14 13 13 14 14 14 14 13 12 11 8 6 5 4 3 2 1 1 2 2 4 4 3 4 6 5 5 5 4 6 7 6
8 6 4 6 4 5 7 21 17 10 9 10 9 9 8 10 13 13 11 13 14 14 14 14 12 12 11 7 5 4 3 3 2 2 1 1 2 3 3 3 4 5 4 5 5 5 5 4 4
2 4 6 2 0 4 13 18 18 16 13 15 14 13 11 11 9 8 7 11 14 14 16 15 15 13 10 7 5 3 4 4 3 3 3 1 2 3 4 3 5 5 5 6 6 4 6 5 7
8 5 5 5 1 4 9 17 19 17 15 15 16 14 13 10 10 8 10 12 15 16 15 15 15 14 10 7 4 2 3 3 3 3 4 1 1 3 4 5 5 6 4 5 5 6 4 4 7
14 16 10 5 5 4 9 17 14 5 9 8 11 8 7 11 12 12 12 13 14 15 16 15 15 14 11 9 6 4 4 3 3 4 4 3 1 1 3 4 4 4 4 4 5 5 6 4 3
13 14 14 10 5 6 2 10 9 4 9 9 10 10 9 9 9 11 13 13 14 14 13 14 14 13 10 10 7 7 4 4 3 4 4 3 2 1 3 4 4 4 3 4 4 4 4 5 4
5 5 10 9 9 5 9 8 6 3 9 13 13 12 9 9 11 13 13 13 12 12 13 13 13 12 11 9 7 6 5 3 4 4 5 4 3 1 2 4 4 4 3 4 4 4 5 4 3
13 8 6 3 3 7 10 11 8 9 9 5 4 11 10 11 11 11 11 12 12 12 12 12 13 11 10 9 7 7 7 6 5 5 5 4 3 2 1 3 3 3 3 3 3 3 4 3 3
7 10 2 2 3 7 4 8 12 7 9 6 6 12 11 11 12 13 14 13 13 15 14 12 13 12 10 9 8 7 7 7 7 6 4 5 4 3 2 2 3 3 3 3 1 2 2 3 2
11 8 6 8 7 2 3 12 7 7 4 8 5 10 12 12 11 12 13 13 14 14 14 13 13 12 11 10 8 7 6 5 4 5 4 4 3 3 2 2 2 3 3 3 1 1 2 3 2
7 8 2 6 2 2 6 7 11 11 13 9 8 11 14 14 14 14 14 13 14 14 14 14 13 12 11 10 8 7 7 7 6 6 5 4 4 3 3 2 1 2 3 3 1 2 3 4 4
8 11 5 2 7 9 7 7 8 3 13 8 10 10 13 13 14 13 13 14 13 13 12 12 12 12 12 11 9 7 8 7 6 5 6 5 4 4 4 2 1 1 2 3 2 3 2 4 6
8 8 4 3 6 6 8 11 9 14 8 14 15 13 13 14 14 14 13 13 13 12 12 13 12 12 11 10 9 8 7 7 6 6 5 5 5 5 4 3 2 1 2 2 3 4 2 4 6
18 17 14 10 11 6 5 13 3 5 3 5 12 11 11 11 12 13 13 14 13 13 12 13 12 12 11 10 9 9 8 7 7 7 6 5 5 4 4 4 3 3 2 3 3 4 4 4 5
Wind_Direction
303 324 285 236 241 250 238 199 325 204 204 88 96 273 341 6 325 5 127 109 146 150 142 131 119 123 128 118 109 103 99 93 85 74 65 57 46 35 26 21 15 7 4 358 355 355 355 341 346
335 283 229 148 253 234 179 153 213 215 79 124 139 177 227 85 70 105 145 157 156 146 129 127 119 127 129 119 114 111 105 97 85 73 62 50 40 28 20 18 14 8 0 357 352 349 346 343 339
304 338 254 249 241 243 273 185 172 149 166 187 207 291 332 94 105 130 89 139 148 144 126 125 122 132 128 123 120 112 101 91 83 69 50 37 33 26 18 13 11 4 353 345 347 343 338 335 332
290 179 141 248 235 254 271 152 208 178 172 212 234 223 146 32 76 74 138 144 145 144 128 129 123 134 130 125 121 111 103 92 74 57 46 40 32 22 13 10 0 352 352 347 337 337 336 331 325
49 244 224 248 250 257 241 260 260 230 168 165 194 145 120 97 82 120 144 151 149 143 139 139 126 135 134 131 123 115 105 90 76 60 51 39 27 21 15 7 358 352 349 346 339 334 330 326 323
169 282 236 238 237 239 252 217 220 230 209 147 204 199 105 112 145 144 156 154 152 145 148 145 125 127 132 134 127 118 109 97 78 59 46 37 28 22 14 6 353 353 348 343 339 336 331 328 322
231 220 263 274 271 260 204 163 219 225 213 198 86 225 101 159 125 148 155 149 151 146 150 148 147 136 119 113 111 114 102 89 78 61 46 35 26 20 14 10 358 355 352 345 342 337 333 331 331
182 246 239 230 254 254 144 187 223 222 183 92 248 223 152 140 141 146 149 154 155 154 154 155 153 156 153 142 107 95 94 88 78 61 43 25 18 15 20 358 4 354 351 348 342 340 333 328 320
187 230 240 246 207 19 141 228 158 16 246 199 182 236 85 133 144 146 151 159 163 164 166 164 163 158 151 141 114 112 93 84 89 73 43 344 8 2 359 15 356 352 350 344 339 334 331 322 290
217 227 225 250 263 292 282 269 236 245 207 219 198 154 138 150 164 168 175 178 183 177 173 172 170 163 156 146 138 129 122 85 65 39 16 7 7 13 339 345 339 336 343 333 331 325 317 295 326
184 239 217 237 237 274 281 255 248 246 241 238 227 185 170 174 186 189 193 189 187 178 172 177 175 171 169 152 150 155 137 130 89 40 15 11 5 2 7 352 355 349 351 349 344 341 339 332 326
227 242 240 277 196 216 238 302 256 234 250 8 248 136 174 193 198 198 197 190 182 179 180 177 180 174 170 159 171 155 156 152 129 52 21 5 15 16 4 359 352 351 352 346 352 346 337 330 332
234 250 222 250 249 253 274 255 263 259 250 245 206 196 206 208 209 207 202 189 182 185 183 183 180 179 171 168 159 162 151 176 94 69 54 14 24 17 360 1 352 350 349 351 354 345 350 354 343
273 263 269 269 252 245 243 260 205 239 219 223 218 234 230 220 213 200 198 193 189 188 186 180 186 181 171 169 165 159 162 149 140 95 56 41 18 8 2 0 0 352 345 347 323 338 356 356 342
253 289 278 237 236 242 211 252 234 248 221 228 217 236 219 214 208 204 200 200 192 190 182 183 179 175 176 168 161 160 155 174 158 121 82 45 22 10 353 359 353 355 343 337 346 360 8 9 8
232 218 258 107 175 212 212 260 267 102 225 243 238 220 202 206 204 204 198 202 196 185 183 177 171 171 170 169 161 156 160 165 142 144 115 79 26 359 359 357 359 350 349 353 358 10 359 10 8
215 254 217 290 199 154 219 279 53 257 221 239 221 210 204 199 206 204 202 203 194 188 179 174 171 168 164 157 152 149 152 155 145 161 142 91 22 7 348 354 3 352 341 5 5 355 13 13 355
224 231 238 247 160 211 230 260 271 256 271 267 244 239 231 209 198 185 202 202 197 185 177 171 167 161 155 144 141 141 152 157 164 161 137 107 39 357 348 351 9 354 349 10 12 11 14 23 344
198 254 268 265 96 245 244 263 267 271 261 258 252 245 235 217 196 188 184 182 181 180 173 170 161 161 155 153 156 171 182 177 172 165 150 141 41 350 358 351 4 10 1 6 356 3 359 17 8
214 245 262 272 187 249 291 280 277 261 253 242 243 242 237 211 203 194 175 176 177 175 174 169 165 164 169 167 158 147 160 183 165 161 149 159 67 0 356 348 10 4 358 359 6 6 348 21 20
225 223 223 249 324 226 298 275 254 242 245 240 238 245 238 230 206 188 180 180 173 174 172 171 165 167 169 160 136 121 124 127 171 181 160 166 126 15 353 352 7 15 357 346 2 359 11 7 44
228 214 221 238 265 260 357 292 277 263 259 233 221 215 218 206 194 180 175 175 177 171 166 165 162 165 167 165 170 178 181 175 169 167 146 163 146 86 358 340 12 13 354 338 4 351 0 333 34
236 165 207 211 217 271 217 269 264 295 267 248 216 206 199 190 184 176 175 172 166 159 161 162 159 162 165 174 179 172 171 159 151 156 156 165 146 129 9 344 4 28 358 337 335 350 358 354 13
141 110 87 84 183 243 202 218 243 237 224 257 199 196 185 175 174 168 161 156 157 155 158 159 160 164 169 172 180 183 174 173 170 168 169 165 155 155 44 347 359 18 7 355 331 349 8 15 32
188 166 131 201 206 255 148 204 255 248 245 249 244 198 181 171 170 166 165 165 159 161 161 160 165 168 173 177 182 184 183 183 185 174 168 163 159 159 96 341 11 355 5 357 310 4 48 47 21
180 194 173 207 198 250 139 233 234 254 279 262 262 193 169 175 174 173 171 168 165 166 167 167 172 168 174 176 182 185 183 187 187 176 165 163 159 146 142 301 14 347 24 24 58 47 45 64 72
181 209 129 102 52 271 208 258 264 247 249 228 214 183 178 177 179 179 173 174 174 173 175 176 176 174 176 179 178 183 186 191 186 173 176 159 160 155 160 248 335 4 36 58 90 77 88 92 77
180 138 145 220 214 236 226 263 253 240 242 209 209 208 188 182 179 180 180 179 179 179 177 181 182 180 177 180 184 184 186 191 182 179 186 169 162 173 163 203 206 68 68 71 83 101 76 110 104
160 174 180 219 222 243 259 249 197 231 216 208 201 201 194 187 185 182 183 181 181 177 180 181 181 179 180 184 181 181 184 187 182 187 187 180 169 178 171 181 197 182 132 104 113 107 93 109 118
225 206 178 178 204 231 285 257 157 245 259 237 205 187 186 188 186 184 181 177 178 182 181 184 183 183 187 184 180 186 181 183 189 191 184 185 177 180 175 182 207 208 170 149 155 135 127 118 131